Theta_e
318 317 314 311 309 307 306 303 301 300 300 298 297 296 295 294 296 296 296 294 292 294 294 294 293 292 291 291 290 289 288 288 287 287 286 285 284 284 284 284 283 283 284
317 315 311 309 308 305 304 301 301 300 299 298 297 296 295 295 295 295 295 293 292 293 292 292 291 291 290 289 289 288 287 286 286 284 283 283 282 282 282 282 283 283 283
315 312 309 307 306 303 301 301 300 299 298 298 297 296 295 295 295 295 294 293 292 292 291 290 289 289 288 288 287 286 286 285 283 283 282 281 281 281 282 281 282 282 283
312 309 308 306 303 302 301 300 300 298 298 298 297 295 294 295 295 295 293 291 291 291 291 289 288 287 287 287 286 285 284 284 283 283 281 281 281 281 282 282 282 282 281
310 308 306 303 303 301 301 300 298 298 298 297 296 294 295 294 294 294 293 292 291 290 289 287 286 287 287 286 285 284 284 284 283 281 280 281 281 281 282 282 281 280 280
309 307 305 302 302 299 298 298 298 297 296 295 294 294 294 294 294 294 293 292 291 290 287 286 286 286 286 285 285 284 284 283 281 278 280 281 281 281 281 281 280 280 281
307 305 303 301 299 299 299 297 296 295 294 294 294 294 294 294 293 294 293 292 291 289 287 286 286 286 285 285 284 284 282 281 279 278 280 280 281 280 280 280 280 282 282
304 301 300 299 298 296 296 295 295 294 294 294 294 294 294 293 293 293 293 292 291 289 288 286 285 285 285 284 284 283 282 281 279 279 280 280 280 279 280 281 281 282 282
300 299 298 295 295 295 295 294 294 293 294 294 293 294 293 292 292 292 292 291 290 289 287 285 285 284 284 283 283 282 281 281 279 278 278 279 280 280 281 281 281 281 281
298 296 296 295 296 294 293 293 293 293 293 293 293 293 293 292 292 291 290 290 289 288 286 285 285 284 283 283 282 281 281 280 280 280 278 279 279 280 280 280 280 281 281
298 297 297 296 293 292 292 293 293 292 292 292 292 292 292 292 292 291 290 289 288 287 286 285 284 283 283 282 281 281 280 280 280 279 279 278 278 279 279 279 280 281 281
300 300 297 293 293 292 292 292 292 292 292 292 292 292 292 291 290 290 290 288 287 287 287 285 284 283 282 281 281 281 281 280 280 279 279 279 278 278 278 279 279 280 281
296 294 293 292 290 291 291 291 291 292 292 291 292 292 291 290 289 290 289 288 288 287 286 285 284 283 282 281 281 281 281 280 280 279 279 279 278 278 278 278 279 280 281
293 292 290 290 290 290 290 290 290 291 291 291 291 290 290 289 289 290 289 288 288 287 285 285 284 283 283 282 282 281 281 281 280 280 279 279 278 278 278 278 279 280 280
291 290 290 290 289 289 290 290 290 290 291 291 290 290 289 289 288 288 289 288 288 287 285 284 284 284 283 282 282 282 281 281 281 280 279 279 278 278 278 278 278 279 279
291 291 290 290 289 289 290 290 290 290 290 289 288 288 288 288 289 288 288 287 287 287 285 284 284 284 283 282 282 282 281 281 281 280 280 279 278 278 277 278 277 278 278
292 292 291 291 290 290 290 291 290 290 290 289 289 288 287 287 287 288 288 287 287 286 285 284 284 283 282 282 282 282 281 281 281 280 280 279 278 278 277 277 277 277 278
290 291 291 291 291 291 291 291 291 291 291 289 289 288 288 287 287 287 287 288 287 286 285 284 283 282 282 282 282 282 281 281 281 281 280 279 278 278 277 277 277 277 277
290 290 290 291 291 291 291 291 291 291 291 289 288 288 288 287 287 287 287 287 287 286 285 284 283 282 282 282 282 282 282 282 281 281 280 279 279 278 278 277 277 277 277
288 287 288 288 288 288 288 289 290 289 289 288 288 288 287 287 287 287 286 287 287 287 286 285 284 283 282 283 283 283 283 282 282 281 280 280 279 278 277 277 277 277 277
283 284 284 284 285 286 287 288 288 287 287 288 286 286 286 287 287 286 286 286 287 287 286 285 285 284 283 283 282 282 282 282 282 281 280 280 279 278 278 277 277 277 276
283 283 282 281 281 282 284 286 288 287 287 287 286 286 286 286 287 287 286 286 287 287 287 286 285 285 284 284 283 282 282 282 282 281 280 280 279 279 278 278 277 277 277
279 280 281 282 283 284 283 285 286 287 287 286 285 286 286 287 287 286 286 286 286 287 287 286 285 285 285 284 284 283 283 283 282 281 281 280 280 279 278 278 277 277 277
279 279 280 280 282 283 284 285 285 286 286 285 285 285 285 285 286 286 285 285 286 286 287 287 286 286 286 285 285 285 284 283 283 282 281 281 280 279 278 278 277 276 276
277 277 278 278 279 280 280 281 282 281 282 283 283 283 283 283 284 284 285 285 285 285 285 285 286 285 285 285 285 285 285 284 284 283 282 281 280 279 278 278 277 276 276
276 276 276 276 276 276 277 277 278 278 279 278 279 280 280 280 281 281 282 284 284 284 285 285 285 285 285 285 285 285 285 285 284 283 282 281 280 279 278 278 277 277 276
Wind_Speed
25 26 25 23 20 17 13 11 10 12 19 19 19 18 19 16 15 20 23 28 22 17 16 15 16 17 13 12 15 17 21 25 29 35 36 38 39 38 39 37 29 28 27
27 28 25 21 15 14 9 9 11 16 20 21 19 20 19 16 17 22 25 24 19 19 17 16 14 14 15 18 22 26 29 27 30 38 35 34 35 33 27 26 25 24 25
26 24 22 19 15 10 16 14 12 18 18 19 21 23 18 18 20 23 22 19 18 14 11 11 13 17 20 24 25 25 27 30 28 25 31 33 28 24 25 25 26 25 25
23 22 19 14 12 15 9 10 18 16 17 22 25 24 18 20 22 23 24 19 18 16 16 16 19 19 19 21 25 28 26 29 26 29 32 27 25 24 25 28 30 29 35
24 23 16 15 14 13 18 14 15 26 22 23 24 20 20 23 25 26 22 17 18 19 20 20 19 20 22 25 23 25 28 27 30 32 30 27 28 29 27 26 30 39 36
24 21 19 16 13 6 9 14 16 16 22 22 23 23 25 24 25 26 23 20 20 21 20 20 17 20 20 21 24 24 24 28 31 27 26 26 29 23 26 33 35 30 34
23 18 11 8 11 14 14 13 15 19 22 23 25 25 23 24 25 27 24 22 20 20 19 19 17 19 21 22 24 25 23 25 23 21 21 22 27 27 31 32 23 27 30
15 13 9 7 4 4 7 10 17 19 22 24 22 24 28 26 24 25 24 22 21 21 20 20 19 21 21 23 25 24 25 24 21 16 17 25 29 27 19 19 24 27 25
12 8 5 7 3 6 14 14 22 24 22 26 27 27 27 24 22 23 23 24 20 20 21 18 18 19 21 23 23 24 25 21 18 16 16 14 13 12 13 17 19 24 30
11 7 4 3 7 9 15 19 17 23 26 27 29 25 23 25 25 25 28 24 23 21 21 21 19 19 21 21 22 24 23 19 18 15 17 14 11 13 14 16 18 21 23
4 1 12 9 7 13 16 19 20 24 28 27 21 22 25 27 27 26 25 24 23 22 20 17 18 20 20 20 22 21 17 16 16 16 20 18 16 15 15 14 15 16 21
15 20 11 9 16 17 18 20 22 23 23 22 24 25 24 26 28 24 23 22 21 21 19 19 17 19 19 17 17 13 12 13 17 18 21 20 23 17 16 16 17 16 15
5 7 14 19 18 17 19 20 23 22 23 22 24 26 28 27 26 24 22 21 21 21 21 19 19 17 13 17 12 12 12 15 18 18 21 21 22 17 18 17 14 13 13
10 16 16 17 19 19 20 19 20 21 22 24 25 28 29 27 25 26 24 22 21 21 20 20 20 17 18 17 14 14 13 15 17 18 21 23 19 18 18 13 15 16 19
16 17 19 20 20 21 21 22 19 18 23 26 27 28 28 27 25 23 23 24 23 23 21 22 23 23 24 20 15 16 15 14 17 19 21 23 18 18 16 13 14 15 17
23 23 20 22 24 25 25 27 22 22 24 23 23 25 27 27 25 24 24 25 25 24 24 24 25 28 26 21 16 17 15 13 18 19 22 18 18 16 15 14 16 15 16
22 26 29 31 32 29 27 26 29 30 29 26 22 22 21 23 22 25 25 26 24 24 27 27 26 26 26 20 16 18 17 15 19 20 22 17 15 13 13 14 16 16 14
26 26 29 31 32 33 33 34 36 35 36 29 25 23 23 20 21 20 22 26 26 26 29 28 27 23 18 19 17 18 16 18 20 22 20 13 11 14 13 11 13 15 16
22 25 27 29 32 33 35 35 35 36 36 28 30 27 25 22 21 21 21 25 29 28 27 26 25 21 17 16 17 18 19 19 20 21 14 12 12 15 12 9 10 12 15
32 33 31 33 35 36 35 33 29 30 32 28 28 30 27 25 25 24 24 23 30 29 26 23 22 20 20 19 19 20 23 21 21 22 16 14 14 13 11 9 8 11 14
30 30 30 32 32 35 34 33 34 35 28 25 29 29 27 28 27 24 24 24 25 28 23 23 22 21 19 19 22 25 24 23 23 23 17 14 15 11 11 9 6 9 12
29 32 36 37 38 37 35 34 33 24 23 25 25 25 26 24 26 23 22 24 23 27 24 23 24 23 21 20 21 22 26 26 25 23 17 15 14 10 10 9 7 9 10
32 30 29 32 36 33 31 30 29 24 25 22 20 22 23 24 21 19 21 22 21 28 26 21 22 23 23 21 20 23 25 24 22 20 18 16 13 11 12 9 9 9 9
23 24 30 28 30 27 30 32 30 26 24 13 14 16 17 16 16 17 17 18 18 18 23 20 21 21 20 21 22 23 23 22 22 21 20 19 15 13 13 11 8 8 9
25 25 23 27 28 31 29 23 17 13 8 9 14 15 16 18 20 20 15 12 15 15 15 15 16 17 18 18 19 19 20 22 23 22 19 19 16 14 13 11 10 8 8
24 24 25 26 26 23 20 19 17 15 15 15 12 11 12 12 13 16 19 22 20 10 13 13 14 14 16 17 17 16 16 19 25 22 21 18 17 15 12 12 11 9 7
Wind_Direction
221 219 218 221 224 233 252 253 245 280 268 285 285 293 296 298 288 290 294 304 308 303 296 290 295 301 312 293 288 289 289 293 296 299 301 301 298 298 299 303 304 302 304
217 216 219 227 233 232 268 243 283 273 271 281 284 294 295 284 285 290 295 305 308 298 294 302 303 296 289 289 294 295 297 299 302 303 305 308 306 307 307 307 311 309 309
219 223 225 225 232 240 218 273 250 265 270 271 284 294 289 280 284 291 308 296 298 290 290 297 297 297 296 298 300 298 299 301 308 308 313 318 317 316 317 317 316 312 304
225 224 218 225 212 222 250 226 270 261 271 280 292 298 293 284 285 287 301 287 284 279 279 279 288 296 296 293 294 300 304 313 317 315 317 318 320 323 321 317 315 313 311
213 210 216 203 221 217 245 268 271 282 287 290 295 297 290 291 289 293 301 286 275 281 287 289 286 287 290 294 296 301 309 314 313 315 313 314 318 324 320 316 315 318 314
213 213 212 212 252 219 242 307 281 278 291 294 293 292 292 290 292 293 297 287 287 287 295 299 284 289 294 291 296 306 308 309 309 306 304 310 315 314 310 311 315 316 320
206 202 213 213 201 250 283 278 284 300 300 292 291 285 283 287 290 287 291 288 283 282 295 295 283 288 294 291 293 298 304 310 310 302 295 300 300 303 307 313 311 313 314
180 174 182 220 284 216 248 299 315 300 287 292 287 285 292 289 288 287 285 282 282 280 292 293 285 288 288 293 298 306 314 317 315 305 283 293 297 304 306 306 312 324 318
164 168 145 120 220 284 286 302 282 287 291 286 289 288 289 283 281 285 282 280 274 283 296 290 285 278 288 294 301 307 314 319 316 314 314 311 307 312 308 313 319 317 312
129 105 125 241 300 311 295 293 299 282 284 289 289 286 286 286 288 287 295 290 281 289 295 295 287 284 286 292 300 309 314 319 323 329 334 333 330 320 313 310 310 313 318
193 55 344 315 301 296 288 276 282 286 290 293 287 284 286 289 292 291 291 290 287 287 295 305 288 286 288 299 306 308 312 319 334 329 341 338 332 325 321 317 312 313 317
323 310 301 290 285 285 284 291 293 292 293 293 291 289 288 295 296 290 281 280 278 282 291 301 297 287 288 294 298 303 312 329 332 331 336 333 340 331 328 326 321 313 309
301 281 287 293 299 300 297 294 291 291 291 291 294 288 289 299 293 286 277 270 272 281 289 290 295 292 286 301 292 307 313 321 322 324 325 329 331 331 329 326 325 323 312
309 298 301 304 302 299 296 297 298 294 293 296 297 296 299 299 291 281 272 272 270 278 290 284 283 292 299 298 294 300 298 308 314 314 317 322 324 336 344 341 340 347 338
305 309 306 301 299 300 301 302 295 290 289 292 293 295 297 291 292 286 279 270 275 275 282 279 275 285 295 288 284 296 290 291 302 308 313 317 325 333 346 345 342 342 344
313 308 303 306 305 302 300 300 291 288 301 297 298 291 293 289 287 278 279 282 284 276 275 274 274 279 284 281 272 287 280 285 296 305 310 316 324 331 339 347 352 340 345
306 308 309 308 308 303 298 292 293 303 299 308 306 306 303 297 287 283 281 275 276 269 266 269 273 276 279 262 260 277 281 278 289 302 311 313 315 327 335 338 349 352 347
302 306 306 305 305 304 300 297 288 276 284 307 308 306 303 302 292 284 290 274 266 261 266 270 277 278 274 252 252 264 272 278 287 296 301 308 319 328 330 333 344 350 351
315 312 306 304 304 303 302 299 296 294 287 304 305 301 308 302 295 286 283 272 263 263 268 271 276 273 266 259 251 257 265 280 285 293 292 306 316 318 325 317 336 342 348
311 308 304 303 302 301 301 299 299 300 298 298 301 299 307 298 296 289 285 282 267 260 268 273 276 270 261 256 258 261 258 271 282 293 288 300 310 310 316 311 329 333 343
322 320 319 318 307 301 303 301 293 291 292 294 298 304 303 293 288 286 288 285 277 260 265 268 270 271 266 262 262 264 259 268 277 288 282 289 294 298 302 298 313 313 323
318 316 316 318 314 310 305 300 284 288 290 301 305 305 305 294 288 280 288 289 284 273 269 265 265 267 269 262 254 257 261 264 269 277 270 276 285 291 293 294 299 299 314
322 326 328 327 324 315 309 312 305 295 296 294 303 312 311 303 281 283 293 290 291 284 269 266 263 264 266 266 260 254 258 262 266 267 266 270 273 281 286 286 289 294 304
334 328 327 320 351 342 317 315 312 295 290 274 283 296 309 336 319 296 296 300 295 294 281 273 266 268 269 269 268 265 263 261 258 262 264 266 262 269 271 277 274 285 296
338 335 330 337 336 326 332 356 15 19 346 292 289 297 299 295 291 295 308 325 291 286 281 280 275 273 272 273 272 271 270 267 260 257 258 261 252 253 260 262 264 269 270
344 338 338 341 342 338 343 348 349 340 331 327 331 324 321 318 311 304 295 282 292 301 273 273 273 275 273 267 265 264 266 269 262 253 248 250 242 243 248 249 253 252 245